Location: Medlow Airstrip Trail, Medlow Bath NSW 2780, Australia
(33.6682°S, 150.3233°E)
Time: 19:15:47
(UTC+11:00)

LightSail 2 - Pass Details

Date: 23 August 2019
Orbit: 707 x 722 km, 24.0° (Epoch: 22 October)

Event Time Altitude Azimuth Distance (km) Brightness Sun altitude
Rises 05:55:10 0° 323° (NW) 3,108 8.2 -7.8°
Reaches altitude 10° 05:58:44 10° 348° (NNW) 2,196 7.7 -7.0°
Maximum altitude 06:01:23 14° 19° (NNE) 1,935 7.8 -6.5°
Drops below altitude 10° 06:04:03 10° 50° (NE) 2,206 8.8 -5.9°
Sets 06:07:39 0° 74° (ENE) 3,133 11.2 -5.2°
